FIN6RL ESSA-EFHK

Flight info

Callsign FIN6RL
Flight time 0h 43m
Altitude 31000
Route TOVRI N851 RIKUM DCT RIRIP Y364 LAKUT
Aircraft MD82/M-SDFGIRWY/S

Departure

Time 2026-04-20 06:13
Airport Stockholm-Arlanda Airport (ESSA)

Arrival

Time 2026-04-20 06:57
Airport Helsinki Vantaa Airport (EFHK)
Time Latitude Longitude Altitude Speed Heading
2026-04-20 05:56 59.64491 17.92514 113 ft 0 kts
2026-04-20 06:08 59.64469 17.92510 113 ft 4 kts
2026-04-20 06:08 59.64442 17.92508 110 ft 4 kts 359°
2026-04-20 06:08 59.64416 17.92514 111 ft 4 kts 342°
2026-04-20 06:09 59.64397 17.92537 112 ft 3 kts 304°
2026-04-20 06:09 59.64396 17.92541 110 ft 0 kts 303°
2026-04-20 06:11 59.64397 17.92490 111 ft 9 kts 253°
2026-04-20 06:11 59.64350 17.92402 114 ft 9 kts 218°
2026-04-20 06:11 59.64342 17.92305 116 ft 7 kts 297°
2026-04-20 06:11 59.64368 17.92202 114 ft 9 kts 297°
2026-04-20 06:12 59.64402 17.92070 113 ft 12 kts 295°
2026-04-20 06:12 59.64409 17.91879 112 ft 16 kts 271°
2026-04-20 06:12 59.64427 17.91661 107 ft 12 kts 292°
2026-04-20 06:12 59.64492 17.91600 110 ft 11 kts 11°
2026-04-20 06:13 59.64652 17.91659 111 ft 46 kts 10°
2026-04-20 06:13 59.65210 17.91861 105 ft 117 kts 11°
2026-04-20 06:13 59.66202 17.92217 310 ft 160 kts 11°
2026-04-20 06:13 59.67262 17.92584 1350 ft 150 kts 12°
2026-04-20 06:14 59.68275 17.92914 2395 ft 145 kts 13°
2026-04-20 06:14 59.69248 17.93225 3279 ft 141 kts 14°
2026-04-20 06:14 59.70234 17.93577 3984 ft 152 kts 15°
2026-04-20 06:14 59.71345 17.94015 4494 ft 176 kts 15°
2026-04-20 06:15 59.72653 17.94559 4859 ft 210 kts 15°
2026-04-20 06:15 59.74182 17.95194 5372 ft 236 kts 18°
2026-04-20 06:15 59.75634 17.96830 6025 ft 246 kts 50°
2026-04-20 06:15 59.76351 17.99879 6999 ft 249 kts 82°
2026-04-20 06:16 59.76258 18.03310 7878 ft 257 kts 95°
2026-04-20 06:16 59.76004 18.06853 8752 ft 261 kts 95°
2026-04-20 06:16 59.75762 18.10451 9671 ft 264 kts 95°
2026-04-20 06:16 59.75519 18.14068 10504 ft 268 kts 95°
2026-04-20 06:17 59.75327 18.17899 10841 ft 289 kts 91°
2026-04-20 06:17 59.75221 18.22055 11082 ft 311 kts 90°
2026-04-20 06:17 59.75157 18.26452 11570 ft 322 kts 89°
2026-04-20 06:17 59.75119 18.30865 12365 ft 324 kts 89°
2026-04-20 06:18 59.75097 18.35366 13167 ft 326 kts 89°
2026-04-20 06:18 59.75085 18.39889 13918 ft 329 kts 88°
2026-04-20 06:18 59.75072 18.44469 14543 ft 335 kts 88°
2026-04-20 06:18 59.75059 18.49087 15156 ft 339 kts 88°
2026-04-20 06:19 59.75045 18.53805 15804 ft 343 kts 88°
2026-04-20 06:19 59.75031 18.58543 16468 ft 345 kts 88°
2026-04-20 06:19 59.75015 18.63293 17090 ft 349 kts 88°
2026-04-20 06:19 59.74995 18.68160 17727 ft 354 kts 88°
2026-04-20 06:20 59.74974 18.73015 18380 ft 357 kts 86°
2026-04-20 06:20 59.75410 18.77843 18954 ft 357 kts 66°
2026-04-20 06:20 59.76634 18.82142 19550 ft 358 kts 56°
2026-04-20 06:20 59.78045 18.86181 20132 ft 360 kts 54°
2026-04-20 06:21 59.79511 18.90262 20702 ft 364 kts 54°
2026-04-20 06:21 59.81001 18.94366 21327 ft 367 kts 54°
2026-04-20 06:21 59.82497 18.98485 21956 ft 369 kts 54°
2026-04-20 06:21 59.83996 19.02666 22540 ft 372 kts 54°
2026-04-20 06:22 59.85493 19.06911 23133 ft 376 kts 55°
2026-04-20 06:22 59.86970 19.11158 23714 ft 379 kts 55°
2026-04-20 06:22 59.88470 19.15512 24254 ft 382 kts 55°
2026-04-20 06:22 59.89975 19.19905 24764 ft 385 kts 56°
2026-04-20 06:23 59.90977 19.22835 25111 ft 386 kts 56°
2026-04-20 06:23 59.92501 19.27295 25627 ft 388 kts 56°
2026-04-20 06:23 59.94511 19.33176 26280 ft 392 kts 56°
2026-04-20 06:23 59.95553 19.36224 26598 ft 394 kts 56°
2026-04-20 06:24 59.97358 19.42492 27213 ft 398 kts 70°
2026-04-20 06:24 59.97899 19.46086 27564 ft 400 kts 75°
2026-04-20 06:24 59.98535 19.51435 28013 ft 403 kts 76°
2026-04-20 06:24 59.99137 19.56917 28444 ft 406 kts 76°
2026-04-20 06:25 59.99740 19.62460 28910 ft 408 kts 76°
2026-04-20 06:25 60.00354 19.68031 29390 ft 410 kts 76°
2026-04-20 06:25 60.00976 19.73522 29942 ft 409 kts 76°
2026-04-20 06:25 60.01620 19.79046 30618 ft 405 kts 76°
2026-04-20 06:26 60.02266 19.84468 31037 ft 405 kts 75°
2026-04-20 06:26 60.02931 19.89986 31225 ft 408 kts 75°
2026-04-20 06:26 60.04271 20.01076 31367 ft 418 kts 75°
2026-04-20 06:27 60.05640 20.12458 31388 ft 421 kts 75°
2026-04-20 06:27 60.06994 20.23795 31400 ft 420 kts 76°
2026-04-20 06:28 60.08292 20.35196 31416 ft 419 kts 76°
2026-04-20 06:28 60.09560 20.46608 31410 ft 418 kts 76°
2026-04-20 06:29 60.10834 20.57960 31412 ft 417 kts 76°
2026-04-20 06:29 60.12108 20.69239 31414 ft 418 kts 76°
2026-04-20 06:30 60.13398 20.80639 31403 ft 418 kts 76°
2026-04-20 06:30 60.14687 20.92054 31410 ft 418 kts 76°
2026-04-20 06:31 60.15969 21.03436 31412 ft 418 kts 76°
2026-04-20 06:31 60.17153 21.14831 31423 ft 419 kts 77°
2026-04-20 06:32 60.18345 21.26301 31416 ft 418 kts 76°
2026-04-20 06:32 60.19609 21.37620 31404 ft 416 kts 76°
2026-04-20 06:33 60.20866 21.48928 31410 ft 415 kts 77°
2026-04-20 06:33 60.22008 21.60334 31403 ft 416 kts 78°
2026-04-20 06:34 60.23152 21.71703 31412 ft 416 kts 77°
2026-04-20 06:35 60.24925 21.88871 31413 ft 417 kts 77°
2026-04-20 06:35 60.26103 22.00226 31407 ft 411 kts 77°
2026-04-20 06:35 60.26677 22.05774 30945 ft 405 kts 77°
2026-04-20 06:36 60.27248 22.11296 30458 ft 401 kts 77°
2026-04-20 06:36 60.27814 22.16775 29812 ft 395 kts 77°
2026-04-20 06:36 60.28370 22.22166 29221 ft 390 kts 77°
2026-04-20 06:36 60.28911 22.27430 28608 ft 386 kts 77°
2026-04-20 06:37 60.29428 22.32746 28008 ft 383 kts 78°
2026-04-20 06:37 60.29919 22.37976 27415 ft 381 kts 78°
2026-04-20 06:37 60.30417 22.43225 26858 ft 378 kts 77°
2026-04-20 06:37 60.30916 22.48380 26281 ft 376 kts 77°
2026-04-20 06:38 60.31427 22.53544 25690 ft 373 kts 77°
2026-04-20 06:38 60.31946 22.58682 25103 ft 371 kts 77°
2026-04-20 06:38 60.32437 22.63790 24505 ft 370 kts 82°
2026-04-20 06:38 60.32364 22.68989 23858 ft 372 kts 96°
2026-04-20 06:39 60.31892 22.74061 23144 ft 370 kts 99°
2026-04-20 06:39 60.31355 22.79103 22476 ft 365 kts 99°
2026-04-20 06:39 60.30821 22.84080 21861 ft 359 kts 99°
2026-04-20 06:39 60.30299 22.88978 21247 ft 354 kts 98°
2026-04-20 06:40 60.29796 22.93816 20657 ft 349 kts 98°
2026-04-20 06:40 60.29319 22.98579 20075 ft 344 kts 98°
2026-04-20 06:40 60.28860 23.03289 19499 ft 340 kts 97°
2026-04-20 06:40 60.28416 23.07939 18945 ft 336 kts 97°
2026-04-20 06:41 60.27981 23.12545 18344 ft 332 kts 97°
2026-04-20 06:41 60.27552 23.17096 17756 ft 327 kts 97°
2026-04-20 06:41 60.27134 23.21532 17192 ft 322 kts 97°
2026-04-20 06:41 60.26716 23.25964 16647 ft 318 kts 97°
2026-04-20 06:42 60.26309 23.30266 16132 ft 316 kts 97°
2026-04-20 06:42 60.25890 23.34724 15602 ft 328 kts 97°
2026-04-20 06:42 60.25465 23.39221 15087 ft 327 kts 97°
2026-04-20 06:42 60.25043 23.43650 14553 ft 323 kts 97°
2026-04-20 06:43 60.24622 23.48077 13994 ft 320 kts 97°
2026-04-20 06:43 60.24195 23.52461 13421 ft 316 kts 97°
2026-04-20 06:43 60.23758 23.56740 12894 ft 314 kts 98°
2026-04-20 06:43 60.23312 23.61032 12368 ft 312 kts 98°
2026-04-20 06:44 60.22864 23.65339 11822 ft 311 kts 98°
2026-04-20 06:44 60.22422 23.69609 11122 ft 312 kts 98°
2026-04-20 06:44 60.21988 23.73818 10575 ft 307 kts 98°
2026-04-20 06:44 60.21566 23.77889 10417 ft 287 kts 98°
2026-04-20 06:45 60.21169 23.81717 10264 ft 271 kts 98°
2026-04-20 06:45 60.20792 23.85361 9993 ft 261 kts 98°
2026-04-20 06:45 60.20434 23.88875 9598 ft 257 kts 98°
2026-04-20 06:45 60.20079 23.92378 9192 ft 253 kts 98°
2026-04-20 06:46 60.19728 23.95827 8798 ft 250 kts 98°
2026-04-20 06:46 60.19379 23.99252 8420 ft 247 kts 98°
2026-04-20 06:46 60.19035 24.02613 8152 ft 245 kts 98°
2026-04-20 06:46 60.18695 24.05919 7927 ft 244 kts 98°
2026-04-20 06:47 60.18353 24.09263 7667 ft 244 kts 98°
2026-04-20 06:47 60.18011 24.12610 7413 ft 244 kts 98°
2026-04-20 06:47 60.17671 24.15949 7163 ft 243 kts 98°
2026-04-20 06:47 60.17332 24.19235 6902 ft 242 kts 98°
2026-04-20 06:48 60.16990 24.22549 6639 ft 242 kts 98°
2026-04-20 06:48 60.16651 24.25856 6367 ft 241 kts 98°
2026-04-20 06:48 60.16306 24.29159 6101 ft 240 kts 98°
2026-04-20 06:48 60.15959 24.32404 5791 ft 239 kts 99°
2026-04-20 06:49 60.15596 24.35666 5528 ft 237 kts 99°
2026-04-20 06:49 60.15237 24.38894 5266 ft 236 kts 99°
2026-04-20 06:49 60.14879 24.42121 4992 ft 236 kts 99°
2026-04-20 06:49 60.14540 24.45299 4776 ft 233 kts 98°
2026-04-20 06:50 60.14208 24.48494 4649 ft 233 kts 98°
2026-04-20 06:50 60.14104 24.51709 4518 ft 230 kts 75°
2026-04-20 06:50 60.14906 24.54380 4400 ft 227 kts 48°
2026-04-20 06:50 60.15914 24.56760 4262 ft 218 kts 52°
2026-04-20 06:51 60.16879 24.59053 4118 ft 210 kts 49°
2026-04-20 06:51 60.17844 24.61127 3986 ft 201 kts 48°
2026-04-20 06:51 60.18782 24.63155 3855 ft 194 kts 48°
2026-04-20 06:51 60.19688 24.65088 3631 ft 191 kts 47°
2026-04-20 06:52 60.20586 24.67011 3419 ft 182 kts 48°
2026-04-20 06:52 60.21423 24.68851 3112 ft 175 kts 48°
2026-04-20 06:52 60.22234 24.70618 2856 ft 168 kts 48°
2026-04-20 06:52 60.23014 24.72317 2620 ft 167 kts 47°
2026-04-20 06:53 60.23799 24.74012 2381 ft 164 kts 47°
2026-04-20 06:53 60.24578 24.75693 2210 ft 162 kts 48°
2026-04-20 06:53 60.25315 24.77317 1967 ft 155 kts 49°
2026-04-20 06:53 60.26030 24.78910 1695 ft 148 kts 47°
2026-04-20 06:54 60.26671 24.80301 1591 ft 128 kts 48°
2026-04-20 06:54 60.27263 24.81603 1386 ft 124 kts 47°
2026-04-20 06:54 60.27841 24.82881 1168 ft 130 kts 47°
2026-04-20 06:54 60.28470 24.84223 998 ft 128 kts 45°
2026-04-20 06:55 60.29089 24.85516 804 ft 128 kts 46°
2026-04-20 06:55 60.29677 24.86846 665 ft 128 kts 48°
2026-04-20 06:55 60.30279 24.88178 464 ft 129 kts 45°
2026-04-20 06:55 60.30903 24.89507 306 ft 130 kts 47°
2026-04-20 06:56 60.31504 24.90851 164 ft 128 kts 47°
2026-04-20 06:56 60.32057 24.92070 157 ft 104 kts 47°
2026-04-20 06:56 60.32421 24.92864 174 ft 54 kts 47°
2026-04-20 06:56 60.32694 24.93462 181 ft 57 kts 47°
2026-04-20 06:57 60.32945 24.94017 184 ft 48 kts 47°
2026-04-20 06:57 60.33049 24.94404 189 ft 28 kts 91°
2026-04-20 06:57 60.32975 24.94760 179 ft 30 kts 136°
2026-04-20 06:57 60.32801 24.94987 177 ft 30 kts 155°
2026-04-20 06:58 60.32602 24.95104 181 ft 30 kts 163°
2026-04-20 06:58 60.32400 24.95235 179 ft 31 kts 162°
2026-04-20 06:58 60.32221 24.95487 175 ft 33 kts 137°
2026-04-20 06:58 60.32079 24.95749 174 ft 24 kts 137°
2026-04-20 06:59 60.31951 24.95988 171 ft 26 kts 137°
2026-04-20 06:59 60.31860 24.96175 167 ft 13 kts 115°
2026-04-20 06:59 60.31873 24.96362 167 ft 15 kts 54°
2026-04-20 06:59 60.31940 24.96512 167 ft 12 kts 47°
2026-04-20 07:00 60.31972 24.96584 167 ft 2 kts 56°
2026-04-20 07:00 60.31975 24.96619 167 ft 2 kts 105°
2026-04-20 07:00 60.31964 24.96645 167 ft 4 kts 131°
2026-04-20 07:00 60.31950 24.96671 167 ft 0 kts 137°
2026-04-20 07:01 60.31948 24.96674 167 ft 1 kts 137°
2026-04-20 07:01 60.31948 24.96675 167 ft 0 kts 137°